Guymon, OK

8:31 PM CST on January 22, 2018 (GMT -0600)
Guymon Municipal

Weather History for KGUY - December, 2013

Change the Weather History Date:

Saturday, December 28, 2013

  Actual Average Record
Temperature  
Mean Temperature 40 °F 34 °F  
Max Temperature 57 °F 47 °F 72 °F (1999)
Min Temperature 22 °F 21 °F 9 °F (2017)
Degree Days  
Heating Degree Days 25 31  
Month to date heating degree days 866 832  
Since 1 July heating degree days 1752 1723  
Cooling Degree Days 0 0  
Month to date cooling degree days 0 0  
Year to date cooling degree days 1846 1482  
Moisture  
Dew Point 24 °F    
Average Humidity 57    
Maximum Humidity 85    
Minimum Humidity 28    
Precipitation  
Precipitation 0.00 in 0.02 in 0.21 in (2006)
Month to date precipitation 0.31 0.59  
Year to date precipitation 15.31 19.25  
Snow  
Snow 0.00 in - - ()
Month to date snowfall 3.5  
Since 1 July snowfall 7.2  
Snow Depth 0.00 in    
Sea Level Pressure  
Sea Level Pressure 29.94 in    
Wind  
Wind Speed 11 mph (SSW)    
Max Wind Speed 31 mph    
Max Gust Speed 40 mph    
Visibility 10 miles    
Events      
T = Trace of Precipitation, MM = Missing Value Source: NWS Daily Summary

Daily Weather History Graph

Daily Weather History Graph

Search for Another Location

Airport or City:

Trip Planner

Search our weather history database for the weather conditions in past years. The results will help you decide how hot, cold, wet, or windy it might be!

Date:

Astronomy

Dec. 28, 2013 Rise Set
Actual Time 7:57 AM CST 5:38 PM CST
Civil Twilight 7:28 AM CST 6:06 PM CST
Nautical Twilight 6:56 AM CST 6:39 PM CST
Astronomical Twilight 6:24 AM CST 7:10 PM CST
Moon 3:40 AM CST (12/28) 2:27 PM CST (12/28)
Length of Visible Light 10h 38m
Length of Day
9h 40m
Waning Crescent, 19% of the Moon is Illuminated
Dec 28
Waning Crescent
Jan 1
New
Jan 7
First Quarter
Jan 15
Full
Jan 23
Last Quarter

Hourly Weather History & Observations

Time (CST) Temp. Windchill Dew Point Humidity Pressure Visibility Wind Dir Wind Speed Gust Speed Precip Events Conditions
12:53 AM 28.0 °F 21.7 °F 23.0 °F 81% 30.14 in 10.0 mi South 5.8 mph - N/A   Clear
1:53 AM 28.9 °F 21.9 °F 24.1 °F 82% 30.11 in 10.0 mi SSW 6.9 mph - N/A   Clear
2:53 AM 27.0 °F 20.5 °F 21.9 °F 81% 30.09 in 10.0 mi SSW 5.8 mph - N/A   Clear
3:53 AM 28.0 °F 20.0 °F 21.9 °F 78% 30.05 in 10.0 mi SW 8.1 mph - N/A   Clear
4:53 AM 26.1 °F 19.4 °F 19.9 °F 78% 30.04 in 10.0 mi South 5.8 mph - N/A   Clear
5:53 AM 24.1 °F 17.0 °F 19.0 °F 81% 30.05 in 10.0 mi SSW 5.8 mph - N/A   Clear
6:53 AM 23.0 °F 14.7 °F 18.0 °F 81% 30.04 in 10.0 mi SSW 6.9 mph - N/A   Clear
7:53 AM 21.9 °F 13.4 °F 17.1 °F 82% 30.03 in 10.0 mi SW 6.9 mph - N/A   Clear
8:53 AM 30.0 °F 23.2 °F 21.0 °F 69% 30.01 in 10.0 mi SSW 6.9 mph - N/A   Clear
9:53 AM 35.1 °F 27.4 °F 25.0 °F 67% 29.99 in 10.0 mi SSW 10.4 mph - N/A   Clear
10:53 AM 43.0 °F 35.4 °F 25.0 °F 49% 29.94 in 10.0 mi SSW 16.1 mph - N/A   Clear
11:53 AM 48.9 °F - 26.1 °F 41% 29.90 in 10.0 mi South 15.0 mph - N/A   Clear
12:53 PM 53.1 °F - 26.1 °F 35% 29.84 in 10.0 mi SSW 17.3 mph 20.7 mph N/A   Clear
1:53 PM 55.9 °F - 26.1 °F 32% 29.80 in 10.0 mi SW 17.3 mph - N/A   Clear
2:53 PM 57.0 °F - 25.0 °F 29% 29.77 in 10.0 mi SSW 16.1 mph - N/A   Clear
3:53 PM 55.9 °F - 26.1 °F 32% 29.76 in 10.0 mi South 12.7 mph - N/A   Clear
4:53 PM 54.0 °F - 27.0 °F 35% 29.77 in 10.0 mi South 10.4 mph - N/A   Clear
5:53 PM 45.0 °F 41.2 °F 27.0 °F 49% 29.79 in 10.0 mi South 6.9 mph - N/A   Clear
6:53 PM 39.0 °F 35.7 °F 26.1 °F 60% 29.82 in 10.0 mi SE 4.6 mph - N/A   Clear
7:53 PM 37.0 °F - 26.1 °F 65% 29.85 in 10.0 mi Calm Calm - N/A   Clear
8:53 PM 35.1 °F 31.0 °F 26.1 °F 70% 29.86 in 10.0 mi North 4.6 mph - N/A   Clear
9:53 PM 32.0 °F 24.8 °F 25.0 °F 75% 29.91 in 10.0 mi North 8.1 mph - N/A   Clear
10:53 PM 39.0 °F 28.3 °F 26.1 °F 60% 29.93 in 10.0 mi NNE 24.2 mph 32.2 mph N/A   Clear
11:53 PM 36.0 °F 23.0 °F 25.0 °F 64% 29.97 in 10.0 mi NNE 29.9 mph 40.3 mph N/A   Clear